Tracking 18851 objects as of 25-Nov-2017
HD Live streaming from Space Station
objects crossing your sky now

RADUGA 22

Track RADUGA 22 now!
RADUGA 22 is classified as:


NORAD ID: 19596
Int'l Code: 1988-095A
Perigee: 35,777.5 km
Apogee: 35,786.6 km
Inclination: 14.8 °
Period: 1,435.5 minutes
Semi major axis: 42153 km
RCS: 5.0118 m2 (large)
Launch date: October 20, 1988
Source: Commonwealth of Independent States (former USSR) (CIS)
Launch site: TYURATAM MISSILE AND SPACE COMPLEX (TTMTR)
aabbcc
Your satellite tracking list
Your tracking list is empty




NASA's NSSDC Master Catalog

Two Line Element Set (TLE):
1 19596U 88095A   17328.81603942  .00000096  00000-0  00000+0 0  9998
2 19596  14.7777 356.6019 0001074 227.2294 152.0323  1.00313544 90359
Source of the keplerian elements: AFSPC